Temperature
-2 -2 -2 -2 -2 -3 -3 -3 -2 -2 -2 -2 -3 -4 -3 -3 -3 -4 -4 -4 -4 -4 -4 -4 -4 -4 -4 -4 -4 -4 -4 -4 -4 -4 -4 -4 -3 -3 -3 -3 -3 -3 -3 -2
-3 -2 -3 -2 -3 -3 -3 -3 -3 -3 -3 -3 -3 -3 -4 -4 -4 -4 -4 -4 -4 -4 -4 -4 -4 -4 -4 -4 -4 -4 -4 -4 -5 -5 -4 -4 -4 -4 -3 -3 -3 -3 -3 -3
-3 -4 -3 -3 -3 -3 -4 -4 -4 -3 -3 -4 -5 -4 -4 -4 -4 -4 -4 -5 -5 -5 -5 -5 -5 -5 -5 -5 -5 -5 -5 -5 -5 -5 -5 -5 -4 -4 -4 -4 -4 -3 -3 -3
-4 -4 -3 -2 -4 -4 -4 -5 -5 -4 -4 -5 -4 -4 -4 -4 -4 -4 -5 -5 -5 -5 -5 -5 -5 -5 -5 -5 -5 -5 -5 -5 -5 -5 -5 -5 -5 -5 -4 -4 -4 -4 -4 -3
-4 -4 -3 -3 -4 -5 -5 -5 -6 -5 -5 -5 -5 -5 -5 -4 -4 -5 -5 -5 -5 -6 -6 -6 -6 -6 -6 -6 -6 -6 -6 -5 -5 -5 -5 -5 -5 -5 -5 -5 -4 -4 -4 -4
-5 -4 -3 -3 -5 -5 -5 -4 -5 -6 -6 -6 -6 -6 -6 -4 -5 -5 -5 -6 -6 -6 -6 -6 -6 -6 -6 -6 -6 -6 -6 -6 -6 -6 -6 -6 -5 -5 -5 -5 -5 -5 -4 -4
-5 -5 -4 -5 -6 -5 -4 -4 -5 -5 -6 -6 -6 -6 -5 -5 -6 -6 -6 -6 -6 -7 -7 -7 -7 -6 -6 -6 -6 -6 -6 -6 -6 -6 -6 -6 -6 -6 -6 -6 -5 -5 -5 -5
-6 -6 -4 -6 -6 -6 -5 -5 -5 -5 -5 -6 -6 -6 -6 -6 -6 -6 -6 -7 -7 -7 -7 -7 -7 -7 -7 -7 -7 -7 -7 -6 -6 -6 -6 -6 -6 -6 -6 -6 -6 -6 -5 -5
-6 -5 -6 -7 -6 -6 -5 -6 -6 -6 -6 -6 -6 -6 -6 -7 -7 -7 -7 -7 -8 -8 -8 -7 -8 -8 -8 -7 -7 -7 -7 -7 -7 -6 -6 -6 -6 -6 -6 -6 -6 -6 -6 -6
-8 -8 -7 -7 -6 -6 -6 -6 -6 -6 -6 -7 -7 -7 -7 -7 -7 -8 -8 -8 -8 -8 -8 -8 -8 -8 -8 -8 -8 -8 -8 -7 -7 -7 -7 -7 -7 -7 -6 -6 -6 -6 -6 -6
-9 -9 -8 -7 -6 -6 -6 -6 -6 -7 -7 -7 -8 -8 -8 -8 -8 -8 -8 -9 -9 -9 -9 -9 -8 -8 -9 -8 -8 -8 -8 -8 -8 -7 -7 -7 -7 -7 -7 -7 -7 -7 -7 -7
-8 -8 -8 -7 -6 -6 -7 -7 -7 -7 -8 -8 -8 -8 -9 -9 -9 -9 -9 -9 -9 -9 -9 -9 -9 -9 -9 -9 -9 -9 -9 -9 -8 -8 -8 -8 -8 -7 -7 -7 -7 -7 -7 -7
-7 -7 -7 -7 -7 -7 -7 -8 -8 -8 -8 -8 -9 -9 -9 -9 -9 -9 -9 -9 -9 -10 -10 -9 -9 -9 -9 -9 -9 -9 -9 -9 -9 -9 -8 -8 -8 -8 -8 -7 -7 -7 -7 -7
-7 -7 -8 -8 -8 -8 -8 -8 -8 -9 -9 -9 -9 -9 -9 -9 -9 -9 -9 -10 -10 -10 -10 -10 -10 -10 -10 -10 -10 -10 -10 -9 -9 -9 -9 -9 -9 -9 -9 -8 -8 -7 -7 -7
-8 -8 -8 -8 -8 -8 -9 -9 -9 -9 -9 -9 -10 -10 -10 -10 -10 -10 -10 -10 -10 -10 -10 -10 -10 -10 -10 -10 -10 -10 -10 -10 -10 -10 -10 -9 -9 -9 -9 -9 -9 -9 -8 -8
-9 -9 -9 -9 -9 -9 -9 -9 -10 -10 -10 -10 -10 -10 -10 -10 -10 -10 -10 -10 -11 -11 -11 -11 -11 -11 -11 -11 -11 -10 -10 -10 -10 -10 -10 -10 -10 -10 -10 -10 -10 -9 -9 -9
-10 -10 -10 -9 -9 -9 -10 -10 -10 -10 -10 -10 -11 -11 -10 -10 -10 -10 -10 -11 -11 -11 -11 -11 -11 -11 -11 -11 -11 -11 -11 -11 -11 -10 -10 -10 -11 -11 -11 -11 -10 -10 -10 -10
-10 -10 -10 -10 -10 -10 -10 -10 -10 -11 -11 -11 -11 -11 -11 -11 -11 -11 -11 -11 -11 -11 -11 -11 -11 -11 -11 -11 -11 -11 -11 -11 -11 -11 -11 -11 -11 -11 -11 -11 -11 -11 -10 -10
-10 -10 -10 -10 -10 -10 -10 -11 -11 -11 -11 -11 -11 -11 -11 -11 -11 -11 -12 -12 -12 -12 -12 -12 -12 -12 -11 -11 -12 -11 -11 -11 -11 -11 -11 -11 -11 -11 -11 -11 -11 -11 -11 -11
-10 -10 -10 -10 -10 -11 -11 -11 -11 -11 -11 -11 -12 -12 -12 -12 -12 -12 -12 -12 -12 -12 -12 -12 -12 -12 -12 -12 -12 -12 -12 -12 -12 -12 -12 -12 -12 -12 -12 -12 -11 -11 -11 -11
-11 -11 -11 -11 -11 -11 -11 -11 -12 -12 -12 -12 -12 -12 -12 -12 -12 -12 -12 -12 -12 -13 -13 -13 -13 -12 -12 -12 -12 -12 -12 -12 -12 -12 -12 -12 -12 -12 -12 -12 -12 -12 -12 -12
-11 -11 -11 -11 -12 -12 -12 -12 -12 -12 -12 -12 -12 -13 -13 -13 -13 -13 -13 -13 -13 -13 -13 -13 -13 -13 -13 -13 -13 -13 -13 -13 -13 -13 -13 -13 -13 -12 -12 -12 -12 -12 -12 -12
-12 -12 -12 -12 -12 -12 -12 -12 -12 -13 -13 -13 -13 -13 -13 -13 -13 -13 -13 -13 -13 -13 -13 -13 -13 -13 -13 -13 -13 -13 -13 -13 -13 -13 -13 -13 -13 -13 -13 -13 -13 -13 -13 -12
-12 -12 -12 -12 -12 -13 -13 -13 -13 -13 -13 -13 -14 -14 -14 -14 -14 -14 -14 -14 -14 -14 -14 -14 -14 -14 -14 -13 -13 -13 -13 -13 -13 -13 -13 -13 -13 -13 -13 -13 -13 -13 -13 -13
-12 -12 -13 -13 -13 -13 -13 -13 -14 -14 -14 -14 -14 -14 -14 -14 -14 -14 -14 -14 -14 -14 -14 -14 -14 -14 -14 -14 -14 -14 -14 -14 -14 -14 -14 -13 -13 -13 -13 -13 -13 -13 -13 -13
-13 -13 -13 -13 -14 -14 -14 -14 -14 -14 -14 -14 -14 -14 -14 -14 -14 -14 -14 -14 -14 -14 -14 -14 -14 -14 -14 -14 -14 -14 -14 -14 -14 -14 -14 -14 -14 -14 -14 -14 -14 -14 -14 -14
-13 -13 -14 -14 -14 -14 -14 -14 -14 -14 -15 -15 -15 -15 -15 -15 -15 -15 -15 -15 -15 -15 -15 -14 -14 -14 -14 -14 -14 -14 -14 -14 -14 -14 -14 -14 -14 -14 -14 -14 -14 -14 -14 -14
Wind_Speed
5 5 3 5 6 7 8 9 9 8 8 10 6 5 5 3 3 3 3 3 4 5 5 5 5 5 5 5 5 5 5 5 6 6 6 6 6 6 6 6 7 6 7 7
3 3 2 4 6 8 9 7 9 9 11 8 4 2 3 3 3 4 4 5 5 5 5 5 6 6 6 5 5 5 5 6 6 6 6 6 6 6 6 7 7 7 7 8
3 2 2 5 7 8 5 6 7 10 9 3 3 4 5 5 5 5 6 6 6 6 6 6 6 6 6 6 5 5 6 7 6 6 6 6 6 6 7 7 6 7 8 8
1 1 5 7 2 5 6 5 6 5 4 4 5 5 5 5 5 5 6 6 6 6 6 6 6 6 6 6 6 6 6 7 7 6 6 6 6 7 7 7 7 7 8 8
3 3 6 6 2 2 4 5 5 6 5 4 2 3 4 3 3 4 5 6 6 6 6 5 6 5 5 5 6 6 7 7 7 6 7 7 7 7 7 6 7 7 7 7
3 3 6 5 2 1 2 4 2 3 4 3 1 2 4 3 3 4 4 4 5 5 5 5 6 4 5 6 6 7 8 8 7 7 7 7 7 7 6 6 7 7 7 7
5 5 6 4 3 1 3 5 2 2 2 2 3 5 4 4 4 4 4 5 5 4 5 5 5 4 5 6 7 8 8 7 7 7 7 7 6 6 5 5 6 6 7 6
3 4 6 1 2 3 4 2 1 1 2 2 4 4 4 4 4 4 5 5 5 5 6 6 5 4 6 7 7 7 7 7 7 6 5 5 5 5 5 5 5 5 5 6
5 5 2 2 2 3 2 2 2 2 3 2 3 4 4 4 4 5 5 5 5 5 6 6 5 4 6 7 7 7 7 7 6 6 4 4 4 4 4 4 4 5 4 5
3 5 4 3 2 3 2 2 3 2 3 2 4 5 5 5 5 5 5 5 5 5 6 7 6 6 6 7 6 6 6 6 5 4 4 4 4 4 4 4 4 5 5 5
4 5 4 3 4 4 3 2 2 3 3 3 3 4 4 5 5 5 5 5 4 5 6 7 7 7 7 7 6 6 6 5 5 4 4 4 4 4 5 5 5 5 5 5
5 4 3 5 4 2 2 3 3 3 3 3 2 4 4 4 4 4 5 5 5 5 6 6 6 7 7 6 5 5 5 5 4 4 4 4 4 5 7 6 8 8 8 7
5 4 4 4 4 2 2 3 3 2 2 3 3 3 3 4 4 4 5 5 5 6 6 6 6 7 8 7 6 5 5 5 4 4 4 4 4 4 5 6 7 7 8 8
2 2 2 3 3 3 2 2 2 2 2 2 3 3 3 4 4 5 5 5 5 5 5 6 6 7 8 7 6 6 5 6 5 4 4 4 4 4 4 4 5 5 7 8
3 3 4 3 2 2 2 2 2 3 3 3 3 3 3 4 5 6 6 6 5 5 6 6 6 8 8 7 6 6 5 5 4 4 4 4 4 4 4 4 4 5 5 6
4 3 1 1 2 3 2 2 2 3 4 4 4 4 4 4 5 5 5 5 4 6 6 6 7 8 7 7 7 6 5 8 7 4 4 4 4 4 4 4 4 4 5 5
1 2 3 3 3 3 3 3 3 3 4 4 5 5 5 4 5 5 6 5 4 5 6 6 7 8 7 7 6 5 5 6 8 5 4 4 4 4 4 4 4 4 4 6
3 4 4 3 3 3 3 3 3 3 4 4 4 4 4 4 5 6 6 6 5 6 6 6 7 7 7 7 6 5 5 5 4 4 4 4 4 4 4 4 4 5 5 6
2 2 2 2 2 2 3 3 3 3 4 3 3 3 4 4 4 5 5 5 5 6 7 7 11 8 7 8 8 5 5 5 5 4 4 6 5 4 4 4 4 5 5 5
3 2 2 2 2 2 2 3 3 3 3 3 3 3 4 4 4 4 4 4 4 5 6 8 7 7 7 7 8 4 5 5 5 4 4 4 4 4 4 4 4 5 5 5
3 3 2 2 3 3 2 3 2 3 3 3 2 3 4 4 4 3 4 5 6 6 7 9 6 6 6 7 7 4 5 5 4 4 4 4 4 4 4 5 5 5 5 5
2 2 2 2 2 3 3 3 2 3 3 3 3 3 3 4 4 4 3 4 6 10 7 5 5 8 9 8 4 4 5 5 4 4 4 4 4 4 5 5 5 5 5 5
2 2 2 2 2 3 3 3 3 2 3 3 3 3 3 3 3 3 5 4 5 9 7 5 8 12 11 6 4 5 5 5 5 4 4 4 4 4 5 5 5 5 5 5
2 2 2 2 1 1 2 3 3 2 2 3 3 3 3 3 3 3 3 7 10 10 5 8 12 12 10 5 4 5 5 5 5 4 4 4 4 4 4 4 4 5 5 5
2 1 1 1 1 1 2 2 3 3 3 3 3 3 3 2 3 4 4 5 9 9 5 8 12 11 7 4 4 4 4 5 5 4 4 4 4 4 4 4 4 4 4 5
1 1 1 1 1 1 1 2 2 2 3 3 4 3 3 3 3 4 4 5 6 8 6 5 6 7 5 5 5 5 5 5 6 5 4 4 4 4 4 4 5 5 5 5
1 1 1 2 2 2 1 2 2 3 3 3 4 4 4 4 4 4 5 5 5 5 5 5 5 5 5 5 5 5 4 4 4 4 4 4 4 4 4 5 5 5 5 5
Wind_Direction
260 266 228 233 230 205 209 212 219 241 244 264 263 252 249 245 264 278 285 286 285 286 285 287 292 291 283 283 282 280 276 276 273 276 268 259 256 252 251 250 249 252 251 249
278 278 249 269 253 225 229 231 238 257 268 268 271 260 257 257 259 268 277 281 284 288 290 291 290 292 293 289 289 285 277 276 276 277 280 268 258 258 252 250 248 248 250 247
249 284 357 272 239 210 212 217 207 235 248 267 284 262 251 250 247 253 266 276 278 279 281 281 282 283 284 285 288 283 279 278 275 275 278 275 262 255 250 247 250 250 248 243
203 88 235 246 211 194 203 240 225 237 255 248 254 270 267 247 235 257 272 276 278 279 280 281 280 284 286 289 282 277 277 278 280 280 278 279 270 254 250 250 249 250 250 242
183 220 266 288 254 190 199 263 234 230 254 273 307 329 300 255 236 258 271 276 275 274 278 281 281 283 288 289 287 282 279 280 281 279 272 270 268 263 255 253 255 251 248 243
188 207 236 258 270 258 127 278 264 209 243 267 6 296 276 299 311 304 297 292 292 293 293 289 287 285 282 284 285 281 281 281 281 274 265 264 265 265 262 256 254 254 254 247
211 228 255 273 289 112 166 262 301 223 241 250 230 241 274 302 309 306 303 303 304 302 297 293 293 289 284 284 279 281 286 286 281 273 265 262 263 265 262 263 261 255 255 256
181 212 252 296 109 176 236 297 300 261 249 251 263 282 295 298 302 308 311 311 309 307 306 307 302 293 289 288 291 295 294 291 287 282 273 267 260 264 260 253 258 257 258 265
201 219 262 183 211 264 273 277 284 278 283 271 281 289 297 297 297 302 304 306 308 305 308 312 310 301 293 297 303 303 301 298 297 294 288 278 264 262 264 250 249 253 252 261
253 268 276 268 283 312 300 274 281 281 288 281 277 286 296 296 300 304 307 308 309 310 311 314 316 314 304 307 309 305 304 305 305 302 300 295 285 271 262 250 247 253 254 259
256 283 311 283 263 277 291 304 311 313 298 278 273 289 293 297 299 302 307 309 309 309 308 311 317 319 316 315 315 312 310 310 312 307 303 299 294 279 273 261 252 254 251 250
238 246 236 267 276 282 289 297 294 303 316 316 286 287 299 299 301 304 306 310 313 311 309 313 319 319 321 322 319 315 315 317 314 312 308 303 302 307 303 292 289 282 276 269
247 270 253 273 300 313 284 292 307 300 285 306 315 304 302 301 305 310 312 316 312 309 311 316 320 321 323 326 325 319 314 314 311 309 306 303 302 303 310 319 312 303 298 292
280 304 291 291 298 313 313 322 332 332 321 310 310 315 316 311 312 313 312 309 310 313 316 319 322 321 321 325 326 321 315 311 311 305 303 303 302 300 299 304 314 317 315 307
298 276 251 278 317 337 341 346 349 336 334 334 326 321 319 315 311 309 309 313 321 325 325 326 324 320 322 325 325 320 317 316 311 309 308 308 308 308 308 308 307 309 316 319
306 318 303 302 311 322 332 330 323 316 318 319 320 318 311 307 307 311 317 322 325 323 322 324 321 319 324 326 324 321 318 318 322 318 316 317 316 314 312 312 312 311 312 313
291 297 297 300 300 306 307 298 290 296 303 305 307 310 315 320 323 326 329 331 325 317 316 318 317 320 327 327 323 321 321 323 327 326 321 317 315 312 313 316 314 313 310 314
251 258 255 251 262 279 301 306 302 301 297 297 305 312 317 318 315 316 322 328 330 330 327 323 322 327 330 329 326 323 321 320 321 319 319 319 318 319 321 318 318 317 319 322
301 289 287 283 272 270 284 293 299 303 303 305 309 309 306 304 305 310 318 327 329 329 326 325 334 339 329 329 334 326 326 323 323 324 323 324 329 331 326 324 324 325 326 328
345 345 344 334 324 303 298 300 304 309 309 308 310 314 320 319 317 316 318 315 306 301 307 323 331 326 323 326 337 336 334 330 327 327 328 330 329 329 329 329 329 329 331 330
336 337 339 335 327 323 312 304 305 309 314 316 313 311 312 315 318 318 321 322 319 319 325 332 333 324 324 333 341 339 334 332 331 330 330 330 329 330 332 332 332 331 331 334
310 315 318 322 328 328 324 318 309 308 316 322 323 322 323 324 326 322 305 297 311 327 336 326 323 330 339 345 343 335 331 330 329 330 329 328 328 329 330 331 331 331 334 336
296 293 300 307 308 307 316 322 319 314 312 315 316 316 315 312 315 319 318 317 318 327 335 324 331 339 346 354 345 340 336 333 331 330 327 324 324 325 327 330 331 334 336 335
296 299 299 303 313 331 335 331 332 332 321 315 312 309 312 321 321 311 296 318 330 333 334 331 339 343 350 353 340 337 335 330 327 326 326 328 331 331 330 331 331 332 332 332
303 304 311 337 341 329 318 325 337 340 339 334 325 322 318 306 299 311 318 320 328 335 334 335 340 344 348 336 333 331 329 327 326 327 331 332 331 330 328 327 327 327 328 327
324 324 315 309 301 303 312 321 326 325 331 333 329 328 328 323 312 312 316 317 321 332 334 325 328 333 333 327 326 325 323 325 330 333 329 326 325 325 324 324 322 322 320 320
351 352 351 350 343 330 321 319 318 316 316 311 314 322 326 327 326 324 321 321 324 325 322 320 321 322 323 323 323 322 321 321 320 320 321 320 318 316 316 314 313 312 312 312
Height
1495 1493 1495 1494 1495 1498 1498 1495 1495 1488 1488 1481 1481 1481 1479 1479 1478 1478 1477 1477 1476 1474 1473 1472 1470 1469 1468 1466 1465 1464 1463 1461 1460 1459 1459 1458 1457 1457 1457 1457 1457 1457 1457 1457
1496 1493 1493 1492 1490 1491 1491 1491 1490 1487 1484 1478 1478 1478 1477 1476 1476 1475 1474 1474 1473 1471 1470 1468 1466 1465 1463 1462 1461 1459 1457 1456 1455 1454 1453 1452 1451 1451 1451 1451 1451 1451 1451 1451
1496 1496 1493 1492 1486 1486 1487 1485 1485 1483 1479 1476 1477 1475 1474 1473 1473 1472 1472 1471 1469 1468 1466 1464 1463 1461 1459 1457 1456 1454 1452 1451 1450 1448 1447 1446 1446 1446 1445 1445 1445 1445 1444 1444
1497 1499 1496 1481 1479 1479 1480 1480 1479 1477 1475 1474 1473 1472 1472 1471 1470 1469 1468 1467 1465 1464 1462 1461 1459 1457 1455 1453 1451 1449 1447 1446 1444 1442 1441 1440 1440 1439 1439 1439 1438 1438 1438 1438
1496 1496 1488 1480 1478 1479 1479 1478 1475 1475 1473 1473 1472 1471 1469 1468 1468 1467 1465 1464 1462 1460 1458 1456 1455 1453 1451 1449 1447 1444 1442 1440 1439 1437 1436 1435 1434 1433 1433 1433 1432 1432 1432 1432
1494 1492 1487 1477 1476 1475 1478 1477 1472 1471 1471 1471 1471 1472 1468 1466 1465 1463 1462 1460 1458 1456 1454 1452 1450 1448 1446 1444 1442 1439 1437 1435 1433 1432 1430 1429 1428 1427 1427 1427 1426 1426 1426 1426
1493 1491 1482 1477 1475 1475 1480 1474 1470 1469 1469 1469 1469 1468 1466 1463 1462 1460 1458 1457 1455 1452 1450 1448 1446 1444 1441 1439 1437 1434 1432 1430 1428 1426 1424 1423 1422 1421 1421 1420 1420 1420 1420 1420
1492 1490 1483 1476 1475 1477 1474 1470 1468 1467 1467 1466 1465 1464 1462 1460 1459 1457 1455 1453 1451 1448 1446 1444 1442 1440 1437 1435 1432 1430 1427 1425 1422 1420 1419 1417 1416 1416 1415 1415 1414 1414 1414 1414
1483 1480 1475 1473 1472 1471 1470 1469 1467 1466 1465 1464 1463 1461 1459 1458 1456 1454 1452 1450 1447 1445 1442 1440 1438 1436 1433 1430 1428 1425 1422 1420 1417 1415 1414 1413 1412 1411 1410 1410 1409 1408 1408 1408
1480 1475 1472 1471 1470 1469 1468 1467 1466 1465 1464 1462 1461 1459 1457 1455 1453 1451 1449 1447 1444 1442 1439 1436 1434 1431 1429 1426 1424 1421 1418 1416 1413 1411 1409 1408 1408 1407 1406 1404 1404 1403 1403 1402
1478 1473 1471 1468 1468 1467 1466 1465 1464 1463 1462 1460 1458 1456 1455 1452 1450 1448 1446 1444 1441 1439 1436 1433 1430 1428 1426 1423 1420 1417 1415 1412 1409 1408 1406 1405 1403 1402 1401 1400 1400 1399 1398 1399
1474 1470 1470 1467 1465 1465 1464 1463 1462 1460 1459 1458 1457 1454 1453 1450 1448 1446 1444 1441 1438 1436 1433 1431 1428 1425 1423 1420 1417 1414 1412 1409 1407 1405 1403 1402 1400 1398 1397 1396 1395 1395 1395 1395
1468 1466 1466 1465 1464 1463 1462 1461 1460 1458 1457 1455 1454 1453 1450 1448 1446 1444 1441 1439 1436 1434 1431 1428 1426 1423 1420 1417 1415 1412 1410 1407 1405 1403 1401 1398 1396 1394 1392 1392 1392 1391 1391 1390
1466 1465 1463 1462 1462 1461 1460 1459 1457 1456 1455 1453 1452 1450 1448 1446 1444 1442 1439 1437 1434 1432 1429 1426 1424 1421 1418 1415 1413 1410 1407 1405 1403 1400 1398 1396 1394 1392 1391 1388 1387 1386 1386 1386
1463 1463 1462 1460 1459 1458 1457 1456 1455 1453 1452 1451 1450 1448 1446 1444 1442 1440 1438 1435 1432 1430 1427 1424 1422 1419 1417 1413 1411 1408 1405 1403 1401 1398 1396 1394 1392 1390 1388 1386 1385 1383 1382 1381
1460 1460 1459 1458 1457 1456 1455 1454 1452 1451 1450 1448 1447 1446 1444 1442 1440 1438 1436 1433 1430 1428 1425 1423 1420 1417 1415 1412 1409 1406 1404 1401 1399 1397 1394 1392 1390 1388 1386 1384 1382 1380 1379 1378
1458 1457 1456 1455 1455 1454 1453 1452 1451 1449 1448 1446 1445 1444 1442 1440 1438 1436 1434 1432 1429 1427 1424 1422 1419 1416 1413 1411 1408 1405 1402 1400 1398 1395 1393 1391 1389 1386 1384 1382 1380 1378 1377 1376
1456 1455 1455 1454 1453 1452 1451 1450 1449 1447 1446 1445 1443 1442 1440 1438 1436 1434 1432 1430 1428 1425 1423 1420 1418 1415 1412 1409 1407 1404 1401 1398 1396 1394 1392 1390 1388 1385 1383 1381 1379 1377 1375 1373
1454 1453 1452 1452 1451 1450 1449 1448 1447 1446 1444 1443 1441 1440 1438 1436 1434 1433 1431 1428 1426 1423 1421 1419 1416 1413 1410 1408 1405 1403 1400 1397 1395 1393 1391 1389 1386 1384 1382 1380 1378 1376 1373 1371
1453 1452 1451 1450 1449 1448 1447 1446 1445 1444 1442 1441 1439 1438 1436 1434 1433 1431 1429 1427 1425 1422 1420 1417 1415 1412 1409 1407 1404 1401 1398 1396 1393 1391 1389 1387 1385 1383 1381 1379 1376 1374 1372 1370
1451 1450 1449 1449 1448 1447 1446 1445 1443 1441 1440 1439 1437 1435 1434 1432 1431 1429 1427 1424 1423 1420 1418 1416 1413 1410 1408 1405 1403 1400 1397 1395 1393 1390 1388 1386 1384 1382 1380 1378 1375 1373 1371 1369
1450 1449 1448 1447 1446 1445 1444 1443 1441 1440 1438 1437 1435 1434 1432 1430 1429 1427 1425 1424 1421 1419 1416 1414 1411 1409 1406 1404 1401 1399 1396 1394 1392 1389 1387 1385 1383 1381 1378 1376 1374 1372 1370 1368
1449 1448 1447 1446 1445 1443 1442 1441 1439 1438 1436 1435 1433 1432 1430 1429 1427 1425 1423 1422 1419 1417 1415 1412 1410 1407 1405 1402 1400 1397 1395 1393 1391 1388 1386 1384 1382 1380 1377 1375 1373 1371 1369 1367
1447 1446 1445 1444 1443 1442 1440 1439 1438 1436 1435 1433 1432 1430 1429 1427 1425 1424 1422 1420 1417 1415 1413 1410 1408 1406 1403 1401 1398 1396 1394 1391 1389 1387 1385 1383 1381 1379 1376 1374 1372 1370 1368 1366
1446 1445 1444 1443 1441 1440 1439 1437 1436 1435 1433 1432 1430 1429 1427 1426 1424 1422 1420 1418 1416 1413 1411 1409 1406 1404 1402 1399 1397 1395 1392 1390 1388 1386 1384 1382 1380 1378 1375 1373 1371 1369 1367 1365
1445 1444 1443 1441 1440 1439 1438 1436 1435 1433 1432 1430 1428 1427 1426 1424 1422 1420 1418 1416 1414 1411 1409 1407 1404 1402 1400 1398 1395 1393 1391 1389 1387 1384 1382 1380 1378 1376 1374 1372 1370 1368 1366 1364
1444 1442 1441 1440 1439 1438 1436 1435 1433 1432 1430 1428 1427 1425 1424 1422 1420 1418 1416 1414 1411 1409 1407 1404 1402 1400 1398 1396 1393 1391 1389 1387 1385 1383 1381 1379 1377 1375 1373 1371 1369 1367 1365 1363